• In Hungary
  • List of Countries
  • For 7 days
  • Water Temperature
  • Satellite Maps
  • Weather Map
  • News
  • Weather Widgets
  • user-avatar
    Login

    Hourly Weather Santa Lucía

    Today, 23 October, Monday

    Time Temperature Precipitation Wind Pressure Humidity
    00:00 +26°C° 0 mm 4 mps 755 mmHg 85%
    01:00 +25°C° 0 mm 4 mps 755 mmHg 88%
    02:00 +25°C° 0 mm 4 mps 755 mmHg 89%
    03:00 +25°C° 0 mm 4 mps 755 mmHg 90%
    04:00 +25°C° 0 mm 4 mps 754 mmHg 92%
    05:00 +25°C° 0 mm 4 mps 755 mmHg 91%
    06:00 +25°C° 0 mm 4 mps 755 mmHg 90%
    07:00 +26°C° 0 mm 4 mps 755 mmHg 90%
    08:00 +27°C° 0 mm 4 mps 755 mmHg 83%
    09:00 +29°C° 0 mm 5 mps 755 mmHg 76%
    10:00 +32°C° 0 mm 6 mps 755 mmHg 69%
    11:00 +33°C° 0 mm 5 mps 755 mmHg 66%
    12:00 +33°C° 0 mm 5 mps 754 mmHg 64%
    13:00 +34°C° 0 mm 4 mps 754 mmHg 61%
    14:00 +34°C° 0.2 mm 4 mps 753 mmHg 64%
    15:00 +33°C° 0.2 mm 4 mps 753 mmHg 67%
    16:00 +31°C° 0.2 mm 3 mps 752 mmHg 71%
    17:00 +30°C° 0.1 mm 3 mps 753 mmHg 75%
    18:00 +28°C° 0.1 mm 3 mps 753 mmHg 80%
    19:00 +27°C° 0.1 mm 3 mps 753 mmHg 84%
    20:00 +27°C° 0.2 mm 3 mps 754 mmHg 86%
    21:00 +26°C° 0.2 mm 3 mps 754 mmHg 88%
    22:00 +26°C° 0.2 mm 3 mps 754 mmHg 90%
    23:00 +26°C° 0.1 mm 3 mps 754 mmHg 90%

    Tomorrow, 24 October, Tuesday

    Time Temperature Precipitation Wind Pressure Humidity
    00:00 +25°C° 0.1 mm 3 mps 754 mmHg 91%
    01:00 +25°C° 0.1 mm 3 mps 754 mmHg 92%
    02:00 +25°C° 0 mm 3 mps 753 mmHg 92%
    03:00 +25°C° 0 mm 2 mps 753 mmHg 93%
    04:00 +24°C° 0 mm 2 mps 752 mmHg 93%
    05:00 +25°C° 0 mm 2 mps 753 mmHg 93%
    06:00 +25°C° 0 mm 2 mps 753 mmHg 92%
    07:00 +25°C° 0 mm 2 mps 753 mmHg 92%
    08:00 +27°C° 0 mm 3 mps 754 mmHg 84%
    09:00 +29°C° 0 mm 3 mps 754 mmHg 76%
    10:00 +31°C° 0 mm 3 mps 754 mmHg 69%
    11:00 +31°C° 0 mm 3 mps 754 mmHg 65%
    12:00 +32°C° 0 mm 2 mps 753 mmHg 61%
    13:00 +34°C° 0 mm 2 mps 752 mmHg 57%
    14:00 +32°C° 0.2 mm 2 mps 752 mmHg 59%
    15:00 +32°C° 0.2 mm 2 mps 751 mmHg 61%
    16:00 +32°C° 0.2 mm 2 mps 751 mmHg 62%
    17:00 +30°C° 0.1 mm 2 mps 751 mmHg 70%
    18:00 +28°C° 0.1 mm 2 mps 752 mmHg 77%
    19:00 +27°C° 0.1 mm 2 mps 752 mmHg 84%
    20:00 +26°C° 0.1 mm 2 mps 753 mmHg 86%
    21:00 +26°C° 0.1 mm 2 mps 753 mmHg 89%
    22:00 +25°C° 0.1 mm 2 mps 754 mmHg 91%
    23:00 +25°C° 0 mm 2 mps 753 mmHg 91%

    Day after tomorrow, 25 October, Wednesday

    Time Temperature Precipitation Wind Pressure Humidity
    00:00 +25°C° 0 mm 1 mps 753 mmHg 92%
    01:00 +25°C° 0 mm 1 mps 753 mmHg 92%
    02:00 +24°C° 0 mm 1 mps 752 mmHg 92%
    03:00 +24°C° 0 mm 1 mps 752 mmHg 92%
    04:00 +24°C° 0 mm 1 mps 752 mmHg 92%
    05:00 +24°C° 0 mm 1 mps 752 mmHg 91%
    06:00 +25°C° 0 mm 1 mps 752 mmHg 90%
    07:00 +25°C° 0 mm 1 mps 753 mmHg 90%
    08:00 +27°C° 0 mm 1 mps 753 mmHg 82%
    09:00 +29°C° 0 mm 1 mps 753 mmHg 75%
    10:00 +31°C° 0 mm 1 mps 754 mmHg 68%
    11:00 +32°C° 0 mm 2 mps 753 mmHg 63%
    12:00 +32°C° 0 mm 2 mps 752 mmHg 59%
    13:00 +34°C° 0 mm 2 mps 752 mmHg 55%
    14:00 +34°C° 0 mm 3 mps 751 mmHg 57%
    15:00 +33°C° 0 mm 3 mps 751 mmHg 60%
    16:00 +33°C° 0 mm 3 mps 751 mmHg 63%
    17:00 +30°C° 0.4 mm 3 mps 751 mmHg 69%
    18:00 +28°C° 0.4 mm 3 mps 751 mmHg 76%
    19:00 +27°C° 0.4 mm 2 mps 752 mmHg 82%
    20:00 +26°C° 0.4 mm 2 mps 752 mmHg 84%
    21:00 +26°C° 0.4 mm 2 mps 753 mmHg 87%
    22:00 +25°C° 0.4 mm 2 mps 753 mmHg 89%
    23:00 +25°C° 0.1 mm 2 mps 753 mmHg 90%

    26 October, Thursday

    Time Temperature Precipitation Wind Pressure Humidity
    00:00 +25°C° 0.1 mm 2 mps 753 mmHg 91%
    01:00 +25°C° 0.1 mm 2 mps 752 mmHg 92%
    02:00 +24°C° 0.2 mm 2 mps 752 mmHg 93%
    03:00 +24°C° 0.2 mm 2 mps 752 mmHg 94%
    04:00 +24°C° 0.2 mm 2 mps 752 mmHg 95%
    05:00 +24°C° 0.1 mm 2 mps 752 mmHg 94%
    06:00 +24°C° 0.1 mm 2 mps 753 mmHg 93%
    07:00 +25°C° 0.1 mm 2 mps 753 mmHg 93%
    08:00 +26°C° 0.2 mm 2 mps 754 mmHg 87%
    09:00 +28°C° 0.2 mm 2 mps 754 mmHg 82%
    10:00 +29°C° 0.2 mm 3 mps 754 mmHg 76%
    11:00 +30°C° 0.5 mm 2 mps 754 mmHg 74%
    12:00 +30°C° 0.5 mm 2 mps 753 mmHg 73%
    13:00 +30°C° 0.5 mm 2 mps 752 mmHg 71%
    14:00 +29°C° 1.1 mm 2 mps 752 mmHg 77%
    15:00 +28°C° 1.1 mm 3 mps 752 mmHg 83%
    16:00 +27°C° 1.1 mm 3 mps 752 mmHg 88%
    17:00 +27°C° 1.6 mm 3 mps 753 mmHg 90%
    18:00 +26°C° 1.6 mm 4 mps 753 mmHg 92%
    19:00 +25°C° 1.6 mm 4 mps 754 mmHg 94%
    20:00 +25°C° 0.6 mm 4 mps 754 mmHg 94%
    21:00 +25°C° 0.6 mm 3 mps 754 mmHg 95%
    22:00 +25°C° 0.6 mm 3 mps 754 mmHg 95%
    23:00 +25°C° 0.3 mm 3 mps 754 mmHg 95%

    27 October, Friday

    Time Temperature Precipitation Wind Pressure Humidity
    00:00 +25°C° 0.3 mm 2 mps 753 mmHg 95%
    01:00 +25°C° 0.3 mm 2 mps 753 mmHg 96%
    02:00 +24°C° 0.1 mm 2 mps 753 mmHg 96%
    03:00 +24°C° 0.1 mm 2 mps 752 mmHg 96%
    04:00 +24°C° 0.1 mm 2 mps 752 mmHg 96%
    05:00 +24°C° 0 mm 2 mps 753 mmHg 95%
    06:00 +25°C° 0 mm 2 mps 753 mmHg 95%
    07:00 +25°C° 0 mm 2 mps 753 mmHg 94%
    08:00 +26°C° 0 mm 2 mps 754 mmHg 88%
    09:00 +27°C° 0 mm 2 mps 754 mmHg 83%
    10:00 +29°C° 0 mm 2 mps 754 mmHg 78%
    11:00 +29°C° 0.8 mm 2 mps 753 mmHg 76%
    12:00 +29°C° 0.8 mm 1 mps 753 mmHg 74%
    13:00 +30°C° 0.8 mm 1 mps 752 mmHg 72%
    14:00 +29°C° 1.5 mm 1 mps 752 mmHg 75%
    15:00 +29°C° 1.5 mm 1 mps 752 mmHg 78%
    16:00 +29°C° 1.5 mm 2 mps 752 mmHg 81%
    17:00 +28°C° 1.3 mm 1 mps 752 mmHg 84%
    18:00 +27°C° 1.3 mm 1 mps 753 mmHg 86%
    19:00 +26°C° 1.3 mm 1 mps 753 mmHg 88%
    20:00 +26°C° 0.4 mm 1 mps 753 mmHg 89%
    21:00 +25°C° 0.4 mm 1 mps 753 mmHg 89%
    22:00 +25°C° 0.4 mm 1 mps 754 mmHg 90%
    23:00 +25°C° 0.2 mm 1 mps 753 mmHg 90%

    28 October, Saturday

    Time Temperature Precipitation Wind Pressure Humidity
    00:00 +25°C° 0.2 mm 1 mps 753 mmHg 91%
    01:00 +25°C° 0.2 mm 1 mps 753 mmHg 92%
    02:00 +25°C° 0.1 mm 1 mps 752 mmHg 92%
    03:00 +25°C° 0.1 mm 1 mps 752 mmHg 92%
    04:00 +25°C° 0.1 mm 1 mps 752 mmHg 92%
    05:00 +25°C° 0 mm 2 mps 753 mmHg 92%
    06:00 +25°C° 0 mm 2 mps 753 mmHg 91%
    07:00 +25°C° 0 mm 2 mps 753 mmHg 91%
    08:00 +27°C° 0 mm 2 mps 753 mmHg 84%
    09:00 +28°C° 0 mm 2 mps 754 mmHg 78%
    10:00 +30°C° 0 mm 2 mps 754 mmHg 71%
    11:00 +30°C° 0.5 mm 2 mps 753 mmHg 70%
    12:00 +31°C° 0.5 mm 2 mps 753 mmHg 69%
    13:00 +31°C° 0.5 mm 3 mps 752 mmHg 68%
    14:00 +31°C° 1.2 mm 3 mps 752 mmHg 73%
    15:00 +30°C° 1.2 mm 3 mps 751 mmHg 77%
    16:00 +29°C° 1.2 mm 3 mps 751 mmHg 82%
    17:00 +28°C° 0.6 mm 3 mps 751 mmHg 85%
    18:00 +27°C° 0.6 mm 3 mps 752 mmHg 87%
    19:00 +26°C° 0.6 mm 2 mps 752 mmHg 89%
    20:00 +26°C° 0 mm 3 mps 752 mmHg 90%
    21:00 +26°C° 0 mm 3 mps 752 mmHg 91%
    22:00 +26°C° 0 mm 3 mps 752 mmHg 91%
    23:00 +26°C° 0.1 mm 4 mps 751 mmHg 91%

    29 October, Sunday

    Time Temperature Precipitation Wind Pressure Humidity
    00:00 +26°C° 0.1 mm 4 mps 751 mmHg 91%
    01:00 +26°C° 0.1 mm 4 mps 750 mmHg 91%
    02:00 +26°C° 0.4 mm 4 mps 750 mmHg 91%
    03:00 +26°C° 0.4 mm 5 mps 750 mmHg 92%
    04:00 +26°C° 0.4 mm 5 mps 749 mmHg 92%
    05:00 +26°C° 0.6 mm 5 mps 750 mmHg 92%
    06:00 +26°C° 0.6 mm 4 mps 750 mmHg 93%
    07:00 +26°C° 0.6 mm 4 mps 750 mmHg 93%
    08:00 +27°C° 0.4 mm 5 mps 750 mmHg 91%
    09:00 +28°C° 0.4 mm 5 mps 751 mmHg 89%
    10:00 +29°C° 0.4 mm 5 mps 751 mmHg 87%
    11:00 +29°C° 0.6 mm 5 mps 751 mmHg 87%
    12:00 +29°C° 0.6 mm 4 mps 750 mmHg 86%
    13:00 +29°C° 0.6 mm 4 mps 750 mmHg 86%
    14:00 +28°C° 1 mm 4 mps 750 mmHg 88%
    15:00 +28°C° 1 mm 3 mps 750 mmHg 89%
    16:00 +27°C° 1 mm 3 mps 749 mmHg 91%
    17:00 +27°C° 0.4 mm 3 mps 750 mmHg 92%
    18:00 +26°C° 0.4 mm 3 mps 750 mmHg 93%
    19:00 +25°C° 0.4 mm 3 mps 751 mmHg 94%
    20:00 +25°C° 0 mm 3 mps 751 mmHg 95%
    21:00 +25°C° 0 mm 3 mps 751 mmHg 95%
    22:00 +25°C° 0 mm 3 mps 752 mmHg 95%
    23:00 +24°C° 0 mm 3 mps 752 mmHg 95%
    Show more